NOAA 18

Last updated on Thu Nov 21 2024 00:02:19 GMT+0000 (Coordinated Universal Time)

1 28654U 05018A 24325.52340305 .00000378 00000+0 22425-3 0 9992 2 28654 98.8629 41.1118 0013749 343.8012 16.2719 14.13425611 5267
UTC large
Height (km)
Speed (km/s)
/
Latitude / Longitude
Inclination (degrees)
Orbital Period (minutes)
Azimuth
Elevation
Range (km)
Doppler Factor

Next 0 passes for location: London (51.5072 / 0.1276)

Sorry there are no passes over London.